Terminal Aerodrome Forecast
Issued by NWS

Home | Current Version | Previous Version | Text Only | Print | Product List | Glossary On
Versions: 1 2 3 4 5 6 7 8 9 10 11 12 13 14 15 16 17 18 19 20 21 22 23 24 25 26 27 28 29 30 31 32 33 34 35 36 37 38 39 40 41 42 43 44 45 46 47 48 49 50
000
FTUS44 KHGX 211454 AAA
TAFIAH
TAF AMD
KIAH 211454Z 2115/2218 06005KT P6SM OVC025
     FM211600 08005KT P6SM BKN025
     FM211900 14005KT P6SM SCT020 BKN050
     FM220400 16005KT P6SM BKN015 OVC020
      TEMPO 2209/2213 5SM BR OVC005
     FM221500 21009KT P6SM MIFG SCT007 BKN012=

USA.gov is the U.S. government's official web portal to all federal, state and local government web resources and services.